(2018 UG) |
Classification: Apollo [NEO] SPK-ID: 3831874 |
[ hide orbit diagram ]
For accurate long-term ephemerides, please instead use our Horizons system.This orbit viewer was implemented using two-body methods, and hence should not be used for determining accurate long-term trajectories (over several years or decades) or planetary encounter circumstances.
[ revert to old Java-based viewer ]
Orbital Elements at Epoch 2458409.5 (2018-Oct-18.0) TDB
Reference: JPL 1 (heliocentric ecliptic J2000)
Element | Value | Uncertainty (1-sigma) | Units |
e | .5384028783587144 | 0.0010328 | |
a | 2.192298324678895 | 0.0049517 | au |
q | 1.011958596450791 | 2.2064e-05 | au |
i | 3.916305323324544 | 0.0055708 | deg |
node | 11.53265199899276 | 0.0044939 | deg |
peri | .9611277980792874 | 0.0075676 | deg |
M | 2.993864406051698 | 0.0094503 | deg |
tp | 2458399.639986011967 (2018-Oct-08.13998601) | 0.0040287 | TDB |
period | 1185.626519530018 3.25 | 4.0169 0.011 | d yr |
n | .3036369329379575 | 0.0010287 | deg/d |
Q | 3.372638052907 | 0.0076176 | au |
|
| | Orbit Determination Parameters
Additional Information
|
[ show covariance matrix ]
Physical Parameter Table
Parameter |
Symbol |
Value |
Units |
Sigma |
Reference |
Notes |
absolute magnitude |
H |
25.9 |
|
.31053 |
MPO458817 |
autocmod 2.6n |
|
[ show close-approach data ]
|